User: anonymous   Login
Location: Whitehorse
(60.7170°N, 135.0500°W)
Time: 15:16:19
(UTC-07:00)
Language:

Cosmos 2219 Rocket - Orbit

View from above orbital plane
View from above orbital plane
View from above satellite
View from above satellite

Ground track
Ground track

The orbit data is extracted from the following two-line orbital elements,

1 22220U 92076B   17288.95989826 -.00000199 +00000-0 -76066-4 0  9994
2 22220 070.9994 165.0295 0010573 088.4963 036.9481 14.16420072287544
Epoch (UTC): 15 October 2017 23:02:15
Eccentricity: 0.0010573
inclination: 70.9994°
perigee height: 830 km
apogee height: 845 km
right ascension of ascending node: 165.0295°
argument of perigee: 88.4963°
revolutions per day: 14.16420072
mean anomaly at epoch: 36.9481°
orbit number at epoch: 28754

The dashed part of the orbit path shows where the satellite is in the earth's shadow,  

DLR